Location: Gorze? G�rny
(49.8500°N, 19.5000°E)
Time: 13:13:24
(UTC+00:00)

Cosmos 2227 Rocket - Pass Details

Date: 13 May 2021
Orbit: 840 x 844 km, 71.0° (Epoch: 22 June)

Event Time Altitude Azimuth Distance (km) Brightness Sun altitude
Rises 22:27:14 0° 334° (NNW) 3,406 6.5 -21.5°
Reaches altitude 10° 22:30:11 10° 348° (NNW) 2,468 5.7 -21.5°
Maximum altitude 22:34:42 24° 41° (NE) 1,689 4.3 -21.5°
Drops below altitude 10° 22:39:12 10° 94° (E) 2,460 4.6 -21.5°
Sets 22:42:08 0° 108° (ESE) 3,392 5.2 -21.5°
